World > North America > United States > Mississippi > Leesdale

Hourly Leesdale, MS Regional Weather

Feedback E-mail the Weather

Quick WX

Leesdale, MS Weather Maps

°F °C°F °C
Leesdale Weather Map
UTC Time: 8/8/2022, 17:26
Your Time:

Leesdale, MS Regional Weather

Expires:202208081800;;685800
ASUS44 KJAN 081710
RWRMS 

MISSISSIPPI HOURLY WEATHER ROUNDUP
NATIONAL WEATHER SERVICE JACKSON MS
1200 PM CDT MON AUG 08 2022

NOTE: "FAIR: INDICATES FEW OR NO CLOUDS BELOW 12,000 FEET WITH NO
SIGNIFICANT WEATHER AND/OR OBSTRUCTIONS TO VISIBILITY.


MSZ059>079-081800-
SOUTH MISSISSIPPI
  
CITY           SKY/WX    TMP DP  RH WIND       PRES   REMARKS
BROOKHAVEN     FAIR      84  84 100 VRB3      30.15F HX 104           
HATTIESBURG    MOSUNNY   88  75  65 VRB3      30.14F HX  97           
LAUREL         SUNNY     87  74  64 W5        30.14F HX  95           
MCCOMB         MOSUNNY   87  72  60 NW3       30.14F HX  93           
NATCHEZ        PTSUNNY   87  75  67 VRB3      30.14F HX  96           
PINE BELT      PTSUNNY   89  76  65 E5        30.15F HX 100           
$$


SKY/WX - Weather  TMP - Temperature  DP - Dew Point  RH - Humidity
WIND - Wind Direction/Speed PRES - Barometric Pressure VSB - Visibility
WCI - Wind Chill Index E13G22 Wind - East Wind 13 mph/Gusts of 22 mph

Trending Headlines

Leesdale Radar Loop



Leesdale Quick Facts


National Two Day Weather Forecast


E-mail the Leesdale Weather Forecast

Voice your opinion or tell us about page issues...